Location: The Saddle
(36.8333°N, 80.3417°W)
Time: 04:59:40
(UTC-05:00)

Hubble Space Telescope - Visible Passes

Search period start: 01 December 2021 00:00
Search period end: 11 December 2021 00:00
Orbit: 534 x 538 km, 28.5° (Epoch: 30 November)

Date Brightness Start Highest point End Pass type
(mag) Time Alt. Az. Time Alt. Az. Time Alt. Az.
01 Dec 2.4 05:25:24 22° SSW 05:25:55 22° S 05:29:09 10° SE visible
02 Dec 2.6 05:14:56 20° S 05:14:56 20° S 05:17:46 10° SE visible
03 Dec 3.0 05:04:28 17° S 05:04:28 17° S 05:06:19 10° SSE visible
04 Dec 3.4 04:54:01 13° SSE 04:54:01 13° SSE 04:54:48 10° SSE visible
